Location: Cactus School
(34.5700°N, 118.0931°W)
Time: 02:33:31
(UTC-08:00)

Tiros 1 - Pass Details

Date: 30 November 2019
Orbit: 630 x 664 km, 48.4° (Epoch: 08 December)

Event Time Altitude Azimuth Distance (km) Brightness Sun altitude
Rises 13:24:59 0° 310° (NW) 2,919 10.4 28.6°
Reaches altitude 10° 13:28:07 10° 332° (NNW) 2,009 9.5 28.2°
Maximum altitude 13:31:01 16° 11° (N) 1,631 8.8 28.0°
Drops below altitude 10° 13:33:56 10° 50° (NE) 2,008 9.3 27.7°
Sets 13:37:04 0° 72° (ENE) 2,917 10.1 27.3°
